Tracking 30995 objects as of 5-Jul-2025
HD Live streaming from Space Station
objects crossing your sky now

STARLINK-4542

Track STARLINK-4542 now!
10-day predictions
STARLINK-4542 is classified as:


NORAD ID: 53435
Int'l Code: 2022-097AZ
Perigee: 546.0 km
Apogee: 547.8 km
Inclination: 53.2 °
Period: 95.4 minutes
Semi major axis: 6917 km
RCS: Unknown
Launch date: August 10, 2022
Source: United States (US)
Launch site: AIR FORCE EASTERN TEST RANGE (AFETR)
Your satellite tracking list
DMSP 5D-2 F11 DEB
Track 1 satellite(s)




NASA's NSSDC Master Catalog

Two Line Element Set (TLE):
1 53435U 22097AZ  25186.26337122  .00000013  00000-0  18928-4 0  9994
2 53435  53.2171 134.6598 0001292  89.1121 271.0019 15.08841770161417
Source of the keplerian elements: AFSPC